TimeAKDT,TemperatureF,Dew PointF,Humidity,Sea Level PressureIn,VisibilityMPH,Wind Direction,Wind SpeedMPH,Gust SpeedMPH,PrecipitationIn,Events,Conditions,WindDirDegrees,DateUTC
12:16 AM,35.6,17.6,48,30.34,10.0,Calm,Calm,-,N/A,,Overcast,0,2012-10-25 08:16:00
12:36 AM,35.6,17.6,48,30.34,10.0,East,4.6,-,N/A,,Overcast,100,2012-10-25 08:36:00
12:56 AM,33.8,17.6,52,30.34,10.0,Calm,Calm,-,N/A,,Overcast,0,2012-10-25 08:56:00
1:16 AM,33.8,19.4,56,30.34,10.0,SSE,5.8,-,N/A,,Overcast,150,2012-10-25 09:16:00
1:36 AM,32.0,17.6,55,30.35,10.0,Calm,Calm,-,N/A,,Scattered Clouds,0,2012-10-25 09:36:00
1:56 AM,33.8,17.6,52,30.35,10.0,Calm,Calm,-,N/A,,Clear,0,2012-10-25 09:56:00
2:16 AM,32.0,19.4,60,30.36,10.0,Calm,Calm,-,N/A,,Scattered Clouds,0,2012-10-25 10:16:00
2:36 AM,33.8,21.2,60,30.36,10.0,North,6.9,-,N/A,,Partly Cloudy,360,2012-10-25 10:36:00
2:56 AM,35.6,21.2,56,30.36,10.0,NE,5.8,-,N/A,,Clear,40,2012-10-25 10:56:00
3:16 AM,33.8,21.2,60,30.37,10.0,NNE,4.6,-,N/A,,Clear,30,2012-10-25 11:16:00
3:36 AM,33.8,21.2,60,30.37,10.0,NE,4.6,-,N/A,,Clear,40,2012-10-25 11:36:00
3:56 AM,33.8,21.2,60,30.37,10.0,ENE,3.5,-,N/A,,Clear,70,2012-10-25 11:56:00
4:16 AM,32.0,19.4,60,30.37,10.0,SE,3.5,-,N/A,,Clear,140,2012-10-25 12:16:00
4:36 AM,30.2,19.4,64,30.38,10.0,ESE,3.5,-,N/A,,Partly Cloudy,120,2012-10-25 12:36:00
4:56 AM,30.2,19.4,64,30.37,10.0,SE,5.8,-,N/A,,Partly Cloudy,140,2012-10-25 12:56:00
5:16 AM,30.2,21.2,69,30.37,10.0,SSE,4.6,-,N/A,,Clear,160,2012-10-25 13:16:00
5:36 AM,30.2,21.2,69,30.37,10.0,ESE,3.5,-,N/A,,Clear,120,2012-10-25 13:36:00
5:56 AM,32.0,24.8,75,30.37,10.0,East,5.8,-,N/A,,Clear,100,2012-10-25 13:56:00
6:16 AM,32.0,23.0,69,30.37,10.0,SE,4.6,-,N/A,,Clear,130,2012-10-25 14:16:00
6:36 AM,30.2,21.2,69,30.37,10.0,SE,5.8,-,N/A,,Clear,140,2012-10-25 14:36:00
6:56 AM,30.2,21.2,69,30.37,10.0,SE,6.9,-,N/A,,Clear,130,2012-10-25 14:56:00
7:16 AM,30.2,23.0,75,30.37,10.0,SE,6.9,-,N/A,,Clear,140,2012-10-25 15:16:00
7:36 AM,30.2,21.2,69,30.37,10.0,SE,4.6,-,N/A,,Clear,140,2012-10-25 15:36:00
7:56 AM,30.2,21.2,69,30.37,10.0,SE,5.8,-,N/A,,Partly Cloudy,140,2012-10-25 15:56:00
8:16 AM,30.2,21.2,69,30.37,10.0,SE,5.8,-,N/A,,Partly Cloudy,140,2012-10-25 16:16:00
8:36 AM,33.8,24.8,70,30.37,10.0,SE,8.1,-,N/A,,Partly Cloudy,130,2012-10-25 16:36:00
8:56 AM,33.8,24.8,70,30.37,10.0,ESE,9.2,-,N/A,,Partly Cloudy,120,2012-10-25 16:56:00
9:16 AM,33.8,24.8,70,30.38,10.0,SE,8.1,-,N/A,,Partly Cloudy,130,2012-10-25 17:16:00
9:36 AM,37.4,21.2,52,30.38,10.0,ESE,4.6,-,N/A,,Partly Cloudy,110,2012-10-25 17:36:00
9:56 AM,37.4,21.2,52,30.39,10.0,ESE,6.9,-,N/A,,Partly Cloudy,110,2012-10-25 17:56:00
10:16 AM,37.4,21.2,52,30.39,10.0,ESE,9.2,-,N/A,,Partly Cloudy,110,2012-10-25 18:16:00
10:36 AM,39.2,19.4,45,30.39,10.0,SE,6.9,-,N/A,,Partly Cloudy,130,2012-10-25 18:36:00
10:56 AM,39.2,19.4,45,30.39,10.0,East,9.2,-,N/A,,Partly Cloudy,100,2012-10-25 18:56:00
11:16 AM,39.2,19.4,45,30.39,10.0,ESE,6.9,-,N/A,,Partly Cloudy,120,2012-10-25 19:16:00
11:36 AM,41.0,17.6,39,30.39,10.0,SE,8.1,-,N/A,,Partly Cloudy,130,2012-10-25 19:36:00
11:56 AM,39.2,17.6,42,30.39,10.0,SE,8.1,-,N/A,,Clear,130,2012-10-25 19:56:00
12:16 PM,41.0,17.6,39,30.39,10.0,ESE,6.9,-,N/A,,Clear,110,2012-10-25 20:16:00
12:36 PM,41.0,17.6,39,30.39,10.0,ESE,3.5,-,N/A,,Clear,110,2012-10-25 20:36:00
12:56 PM,42.8,15.8,34,30.38,10.0,East,4.6,-,N/A,,Clear,80,2012-10-25 20:56:00
1:16 PM,42.8,15.8,34,30.39,10.0,ESE,4.6,-,N/A,,Clear,120,2012-10-25 21:16:00
1:36 PM,42.8,15.8,34,30.38,10.0,SE,5.8,-,N/A,,Clear,130,2012-10-25 21:36:00
1:56 PM,42.8,17.6,36,30.38,10.0,East,3.5,-,N/A,,Clear,100,2012-10-25 21:56:00
2:16 PM,42.8,17.6,36,30.37,10.0,NE,11.5,-,N/A,,Clear,50,2012-10-25 22:16:00
2:36 PM,42.8,17.6,36,30.37,10.0,ENE,10.4,17.3,N/A,,Clear,70,2012-10-25 22:36:00
2:56 PM,42.8,15.8,34,30.37,10.0,ENE,11.5,-,N/A,,Clear,70,2012-10-25 22:56:00
3:16 PM,41.0,17.6,39,30.37,10.0,ENE,9.2,-,N/A,,Clear,70,2012-10-25 23:16:00
3:36 PM,41.0,17.6,39,30.37,10.0,ENE,9.2,-,N/A,,Clear,70,2012-10-25 23:36:00
3:56 PM,41.0,17.6,39,30.37,10.0,ENE,12.7,16.1,N/A,,Clear,70,2012-10-25 23:56:00
4:16 PM,41.0,17.6,39,30.38,10.0,East,9.2,-,N/A,,Clear,80,2012-10-26 00:16:00
4:36 PM,39.2,15.8,39,30.37,10.0,East,9.2,-,N/A,,Clear,80,2012-10-26 00:36:00
4:56 PM,39.2,17.6,42,30.37,10.0,East,11.5,-,N/A,,Clear,80,2012-10-26 00:56:00
5:16 PM,39.2,15.8,39,30.37,10.0,East,8.1,-,N/A,,Clear,80,2012-10-26 01:16:00
5:36 PM,39.2,15.8,39,30.37,10.0,East,8.1,-,N/A,,Clear,90,2012-10-26 01:36:00
5:56 PM,39.2,15.8,39,30.37,10.0,ESE,9.2,-,N/A,,Clear,110,2012-10-26 01:56:00
6:16 PM,37.4,15.8,41,30.37,10.0,East,10.4,-,N/A,,Clear,100,2012-10-26 02:16:00
6:36 PM,37.4,15.8,41,30.37,10.0,East,10.4,-,N/A,,Clear,90,2012-10-26 02:36:00
6:56 PM,37.4,15.8,41,30.36,10.0,East,9.2,-,N/A,,Clear,100,2012-10-26 02:56:00
7:16 PM,37.4,15.8,41,30.36,10.0,East,10.4,16.1,N/A,,Clear,90,2012-10-26 03:16:00
7:36 PM,37.4,15.8,41,30.35,10.0,East,11.5,17.3,N/A,,Clear,80,2012-10-26 03:36:00
7:56 PM,37.4,15.8,41,30.34,10.0,East,11.5,16.1,N/A,,Clear,100,2012-10-26 03:56:00
8:16 PM,37.4,15.8,41,30.34,10.0,East,11.5,17.3,N/A,,Clear,90,2012-10-26 04:16:00
8:36 PM,37.4,15.8,41,30.33,10.0,East,12.7,18.4,N/A,,Clear,80,2012-10-26 04:36:00
8:56 PM,37.4,15.8,41,30.33,10.0,East,13.8,18.4,N/A,,Clear,90,2012-10-26 04:56:00
9:16 PM,37.4,15.8,41,30.33,10.0,East,11.5,-,N/A,,Clear,90,2012-10-26 05:16:00
9:36 PM,37.4,15.8,41,30.33,10.0,East,12.7,-,N/A,,Clear,80,2012-10-26 05:36:00
9:56 PM,37.4,15.8,41,30.33,10.0,East,11.5,-,N/A,,Clear,100,2012-10-26 05:56:00
10:16 PM,37.4,15.8,41,30.33,10.0,East,10.4,16.1,N/A,,Clear,80,2012-10-26 06:16:00
10:36 PM,37.4,15.8,41,30.33,10.0,East,8.1,-,N/A,,Clear,90,2012-10-26 06:36:00
10:56 PM,37.4,15.8,41,30.33,10.0,East,10.4,-,N/A,,Clear,90,2012-10-26 06:56:00
11:16 PM,37.4,15.8,41,30.32,10.0,East,11.5,-,N/A,,Clear,90,2012-10-26 07:16:00
11:36 PM,37.4,15.8,41,30.33,10.0,East,8.1,-,N/A,,Clear,100,2012-10-26 07:36:00
11:56 PM,37.4,15.8,41,30.33,10.0,East,10.4,-,N/A,,Clear,90,2012-10-26 07:56:00